Location: Ladrillo (historical)
(32.8195°N, 117.2231°W)
Time: 22:24:25
(UTC+00:00)

Altair - Pass Details

Date: 27 February 2021
Orbit: 1501 x 1683 km, 47.2° (Epoch: 15 April)

Event Time Altitude Azimuth Distance (km) Brightness Sun altitude
Rises 06:53:56 0° 293° (WNW) 4,695 10.4 -60.8°
Reaches altitude 10° 06:57:24 10° 303° (WNW) 3,736 9.8 -61.3°
Enters shadow 06:58:06 12° 305° (NW) 3,553 9.6 -61.4°
